Find Starlink 37150

NORAD ID: 68315 Int'l Des: 2026-057 Owner: SPXS Country: US Constellation: starlink operational
LEOCIRCULARRETROGRADE

实时位置

正在加载3D地球...

关于 Starlink 37150

正在加载描述...

即将过境

Passes for default location (London). Set your location on the main map for personalized predictions.

高度历史

Loading altitude history...

两行轨道根数

1 68315U 26057X 26125.79673679 .00281238 00000-0 18176-2 0 9992
2 68315 97.2854 251.0616 0000778 267.3873 92.7304 15.75284090 7271
Epoch: May 5, 2026 • Age: 8 hours

当前状态

高度 357.3 km
速度 7.70 km/s
星下点 80.11°N, 65.86°W
发射日期 Mar 20, 2026
运行时间 0.1 years
类型 internet

技术详情

分类 Payload
质量 575.00 kg
干质量 530.00 kg
总质量 575.00 kg
长度 0.30 m
直径 4.10 m
跨度 29.00 m
形状 Box + pan
制造商 SPXS
平台类型 Starlink V2MO
阶段状态 In Orbit
所有者/国家 SPXS/US

Most Searched